| time (UTC) | temp C | wind direction | speed KPH | gust KPH | rain 1hr cm | rain 24hr cm | rain mn cm | humidity % | barometer mb |
| 20260505062325 | 15 | 360 | 0.0 | 3.2 | 0.00 | 2.64 | 6.76 | 93 | 1011.2 |
| 20260505061323 | 14 | 360 | 3.2 | 3.2 | 0.00 | 2.64 | 6.76 | 93 | 1011.0 |
| 20260505060338 | 13 | 360 | 1.6 | 4.8 | 0.00 | 2.64 | 6.76 | 93 | 1010.9 |
| 20260505055339 | 13 | 360 | 3.2 | 4.8 | 0.00 | 2.64 | 6.76 | 93 | 1010.8 |
| 20260505054330 | 13 | 360 | 0.0 | 3.2 | 0.00 | 2.64 | 6.76 | 93 | 1010.8 |
| 20260505053325 | 13 | 360 | 3.2 | 6.4 | 0.00 | 2.64 | 6.76 | 93 | 1010.5 |
| 20260505052332 | 13 | 360 | 0.0 | 3.2 | 0.00 | 2.64 | 6.76 | 93 | 1010.3 |
| 20260505051324 | 13 | 360 | 3.2 | 6.4 | 0.00 | 2.64 | 6.76 | 92 | 1010.4 |
| 20260505050330 | 13 | 360 | 3.2 | 6.4 | 0.10 | 2.64 | 6.76 | 93 | 1010.3 |
| 20260505041342 | 13 | 360 | 4.8 | 8.0 | 2.59 | 2.64 | 6.76 | 92 | 1010.5 |
| 20260505040329 | 13 | 360 | 3.2 | 8.0 | 3.10 | 2.64 | 6.73 | 93 | 1010.5 |
| 20260505035334 | 13 | 360 | 8.0 | 9.7 | 3.71 | 2.62 | 6.68 | 92 | 1010.9 |
| 20260505034329 | 13 | 360 | 4.8 | 6.4 | 3.71 | 2.57 | 6.53 | 92 | 1011.8 |
| 20260505033348 | 13 | 360 | 4.8 | 14.5 | 3.91 | 25.10 | 6.38 | 92 | 1011.8 |
| 20260505032336 | 13 | 360 | 4.8 | 8.0 | 3.81 | 24.61 | 6.25 | 92 | 1011.9 |
| 20260505031348 | 13 | 360 | 1.6 | 9.7 | 3.61 | 24.00 | 6.10 | 92 | 1012.4 |
| 20260505030338 | 13 | 360 | 1.6 | 17.7 | 3.61 | 23.29 | 5.92 | 91 | 1012.3 |
| 20260505025324 | 13 | 360 | 12.9 | 19.3 | 3.61 | 22.50 | 5.71 | 91 | 1012.1 |
| 20260505024340 | 13 | 360 | 9.7 | 17.7 | 3.61 | 21.89 | 5.56 | 91 | 1012.0 |
| 20260505023340 | 13 | 360 | 8.0 | 22.5 | 3.40 | 21.21 | 5.38 | 91 | 1012.0 |
| 20260505022328 | 13 | 360 | 9.7 | 19.3 | 3.51 | 20.80 | 5.28 | 92 | 1012.1 |
| 20260505021333 | 13 | 360 | 11.3 | 16.1 | 4.09 | 20.29 | 5.16 | 92 | 1012.0 |
| 20260505020337 | 14 | 360 | 8.0 | 12.9 | 5.31 | 19.71 | 5.00 | 92 | 1012.3 |
| 20260505015335 | 14 | 360 | 6.4 | 16.1 | 5.31 | 18.90 | 4.80 | 92 | 1012.5 |
| 20260505014347 | 14 | 360 | 6.4 | 12.9 | 5.31 | 18.29 | 4.65 | 92 | 1012.6 |
| 20260505013347 | 14 | 360 | 11.3 | 24.1 | 5.21 | 17.81 | 4.52 | 92 | 1012.6 |
| 20260505012329 | 15 | 360 | 16.1 | 24.1 | 5.21 | 17.20 | 4.37 | 92 | 1012.7 |
| 20260505011331 | 16 | 360 | 16.1 | 37.0 | 4.90 | 16.00 | 4.06 | 91 | 1012.8 |
| 20260505010336 | 16 | 360 | 20.9 | 32.2 | 3.91 | 14.30 | 3.63 | 92 | 1012.8 |
| 20260505005335 | 16 | 360 | 19.3 | 30.6 | 4.50 | 13.49 | 3.43 | 92 | 1013.1 |
| 20260505004331 | 16 | 360 | 17.7 | 33.8 | 4.50 | 13.00 | 3.30 | 92 | 1013.4 |
| 20260505003343 | 16 | 360 | 12.9 | 30.6 | 4.39 | 12.60 | 3.20 | 92 | 1013.5 |
| 20260505002342 | 16 | 360 | 17.7 | 29.0 | 4.39 | 11.99 | 3.05 | 92 | 1013.5 |
| 20260505001326 | 16 | 360 | 12.9 | 29.0 | 4.60 | 11.10 | 2.82 | 92 | 1013.6 |
| 20260505000333 | 16 | 360 | 11.3 | 24.1 | 4.39 | 10.31 | 2.62 | 92 | 1013.8 |
| 20260504235343 | 17 | 360 | 9.7 | 22.5 | 4.19 | 8.89 | 2.26 | 91 | 1013.9 |
| 20260504234343 | 17 | 360 | 12.9 | 27.4 | 4.29 | 8.51 | 2.16 | 91 | 1014.1 |
| 20260504233331 | 17 | 360 | 11.3 | 22.5 | 5.51 | 8.20 | 2.08 | 91 | 1014.2 |
| 20260504232347 | 16 | 360 | 17.7 | 29.0 | 6.30 | 7.49 | 1.91 | 91 | 1014.3 |
| 20260504231323 | 16 | 360 | 8.0 | 24.1 | 6.40 | 6.50 | 1.65 | 90 | 1014.4 |
| 20260504230330 | 16 | 360 | 9.7 | 22.5 | 5.89 | 5.89 | 1.50 | 90 | 1014.5 |
| 20260504225344 | 15 | 360 | 14.5 | 20.9 | 4.70 | 4.70 | 1.19 | 89 | 1014.6 |
| 20260504224327 | 16 | 360 | 14.5 | 20.9 | 4.09 | 4.09 | 1.04 | 88 | 1014.7 |
| 20260504223344 | 16 | 360 | 8.0 | 20.9 | 2.69 | 2.69 | 0.69 | 85 | 1015.1 |
| 20260504222332 | 16 | 360 | 12.9 | 22.5 | 1.09 | 1.09 | 0.28 | 83 | 1015.2 |
| 20260504221340 | 16 | 360 | 14.5 | 22.5 | 0.10 | 0.10 | 0.03 | 81 | 1015.0 |
| 20260504220325 | 17 | 360 | 12.9 | 24.1 | 0.00 | 0.00 | 0.00 | 80 | 1015.2 |
| 20260504215327 | 17 | 360 | 14.5 | 19.3 | 0.00 | 0.00 | 0.00 | 80 | 1015.3 |
| 20260504214342 | 17 | 360 | 14.5 | 24.1 | 0.00 | 0.00 | 0.00 | 80 | 1015.5 |
| 20260504213323 | 17 | 360 | 8.0 | 16.1 | 0.00 | 0.00 | 0.00 | 79 | 1015.7 |
| 20260504212338 | 17 | 360 | 6.4 | 12.9 | 0.00 | 0.00 | 0.00 | 79 | 1016.0 |
| 20260504211340 | 17 | 360 | 8.0 | 17.7 | 0.00 | 0.00 | 0.00 | 78 | 1016.1 |
| 20260504210323 | 17 | 360 | 12.9 | 19.3 | 0.00 | 0.00 | 0.00 | 78 | 1016.2 |
| 20260504205336 | 17 | 360 | 9.7 | 16.1 | 0.00 | 0.00 | 0.00 | 77 | 1016.4 |
| 20260504204326 | 17 | 360 | 12.9 | 19.3 | 0.00 | 0.00 | 0.00 | 75 | 1016.5 |
| 20260504203341 | 17 | 360 | 11.3 | 20.9 | 0.00 | 0.00 | 0.00 | 73 | 1016.4 |
| 20260504202325 | 17 | 360 | 11.3 | 17.7 | 0.00 | 0.00 | 0.00 | 74 | 1016.4 |
| 20260504201331 | 17 | 360 | 6.4 | 12.9 | 0.00 | 0.00 | 0.00 | 76 | 1016.4 |
| 20260504200328 | 17 | 360 | 4.8 | 14.5 | 0.00 | 0.00 | 0.00 | 76 | 1016.6 |
| 20260504195331 | 17 | 360 | 11.3 | 16.1 | 0.00 | 0.00 | 0.00 | 75 | 1016.8 |
| 20260504194343 | 17 | 360 | 8.0 | 9.7 | 0.00 | 0.00 | 0.00 | 74 | 1016.8 |
| 20260504193331 | 17 | 360 | 4.8 | 9.7 | 0.00 | 0.00 | 0.00 | 74 | 1016.9 |
| 20260504192332 | 17 | 360 | 4.8 | 8.0 | 0.00 | 0.00 | 0.00 | 75 | 1016.8 |
| 20260504191331 | 17 | 360 | 4.8 | 6.4 | 0.00 | 0.00 | 0.00 | 75 | 1016.6 |
| 20260504190334 | 17 | 360 | 3.2 | 6.4 | 0.00 | 0.00 | 0.00 | 73 | 1016.6 |
| 20260504185333 | 17 | 360 | 6.4 | 19.3 | 0.00 | 0.00 | 0.00 | 71 | 1016.4 |
| 20260504184336 | 18 | 360 | 8.0 | 12.9 | 0.00 | 0.00 | 0.00 | 69 | 1016.3 |
| 20260504183322 | 18 | 360 | 6.4 | 12.9 | 0.00 | 0.00 | 0.00 | 69 | 1016.3 |
| 20260504182335 | 18 | 360 | 6.4 | 12.9 | 0.00 | 0.00 | 0.00 | 70 | 1016.5 |
| 20260504181341 | 18 | 360 | 3.2 | 8.0 | 0.00 | 0.00 | 0.00 | 71 | 1016.5 |
| 20260504180330 | 18 | 360 | 6.4 | 9.7 | 0.00 | 0.00 | 0.00 | 70 | 1016.6 |
| 20260504175336 | 18 | 360 | 4.8 | 6.4 | 0.00 | 0.00 | 0.00 | 72 | 1016.6 |
| 20260504174349 | 18 | 360 | 4.8 | 9.7 | 0.00 | 0.00 | 0.00 | 72 | 1016.5 |
| 20260504173337 | 18 | 360 | 6.4 | 9.7 | 0.00 | 0.00 | 0.00 | 73 | 1016.4 |
| 20260504172322 | 18 | 360 | 4.8 | 9.7 | 0.00 | 0.00 | 0.00 | 70 | 1016.3 |
| 20260504171339 | 18 | 360 | 4.8 | 12.9 | 0.00 | 0.00 | 0.00 | 70 | 1016.3 |
| 20260504170322 | 18 | 360 | 6.4 | 9.7 | 0.00 | 0.00 | 0.00 | 72 | 1016.5 |
| 20260504160327 | 18 | 360 | 8.0 | 16.1 | 0.00 | 0.00 | 0.00 | 76 | 1017.0 |
| 20260504150338 | 18 | 360 | 12.9 | 22.5 | 0.00 | 0.00 | 0.00 | 79 | 1017.1 |
| 20260504141327 | 18 | 360 | 16.1 | 25.7 | 0.00 | 0.00 | 0.00 | 79 | 1017.3 |
| 20260504140330 | 18 | 360 | 12.9 | 20.9 | 0.00 | 0.00 | 0.00 | 79 | 1017.5 |
| 20260504130341 | 18 | 360 | 11.3 | 22.5 | 0.00 | 0.00 | 0.00 | 79 | 1018.1 |
| 20260504110333 | 17 | 360 | 14.5 | 24.1 | 0.00 | 0.00 | 0.00 | 82 | 1018.5 |
| 20260504100336 | 17 | 360 | 16.1 | 24.1 | 0.00 | 0.00 | 0.00 | 83 | 1018.6 |
| 20260504081340 | 18 | 360 | 12.9 | 17.7 | 0.00 | 0.00 | 0.00 | 78 | 1018.7 |
| 20260504080324 | 17 | 360 | 6.4 | 14.5 | 0.00 | 0.00 | 0.00 | 76 | 1018.9 |
| 20260504070333 | 17 | 360 | 8.0 | 16.1 | 0.00 | 0.00 | 0.00 | 75 | 1018.1 |